Year,Month,Day,Hour,Minute,Value (Times are PST for temperature in C)
2018,04,21,00,00,8.10
2018,04,21,00,01,8.10
2018,04,21,00,02,8.10
2018,04,21,00,03,8.10
2018,04,21,00,04,8.10
2018,04,21,00,05,8.10
2018,04,21,00,06,8.10
2018,04,21,00,07,8.10
2018,04,21,00,08,8.10
2018,04,21,00,09,8.10
2018,04,21,00,10,8.10
2018,04,21,00,11,8.10
2018,04,21,00,12,8.10
2018,04,21,00,13,8.10
2018,04,21,00,14,8.10
2018,04,21,00,15,8.10
2018,04,21,00,16,8.10
2018,04,21,00,17,8.10
2018,04,21,00,18,8.10
2018,04,21,00,19,8.00
2018,04,21,00,20,8.00
2018,04,21,00,21,8.10
2018,04,21,00,22,8.00
2018,04,21,00,23,8.00
2018,04,21,00,24,8.00
2018,04,21,00,25,8.00
2018,04,21,00,26,8.00
2018,04,21,00,27,8.00
2018,04,21,00,28,8.00
2018,04,21,00,29,8.00
2018,04,21,00,30,8.00
2018,04,21,00,31,8.00
2018,04,21,00,32,8.00
2018,04,21,00,33,8.00
2018,04,21,00,34,8.00
2018,04,21,00,35,8.00
2018,04,21,00,36,8.00
2018,04,21,00,37,8.00
2018,04,21,00,38,8.00
2018,04,21,00,39,8.00
2018,04,21,00,40,8.00
2018,04,21,00,41,8.00
2018,04,21,00,42,8.00
2018,04,21,00,43,8.00
2018,04,21,00,44,8.00
2018,04,21,00,45,8.00
2018,04,21,00,46,8.00
2018,04,21,00,47,7.90
2018,04,21,00,48,7.90
2018,04,21,00,49,7.90
2018,04,21,00,50,7.90
2018,04,21,00,51,7.90
2018,04,21,00,52,7.90
2018,04,21,00,53,7.90
2018,04,21,00,54,7.90
2018,04,21,00,55,7.90
2018,04,21,00,56,7.90
2018,04,21,00,57,7.90
2018,04,21,00,58,7.90
2018,04,21,00,59,7.90
2018,04,21,01,00,7.90
2018,04,21,01,01,7.80
2018,04,21,01,02,7.80
2018,04,21,01,03,7.80
2018,04,21,01,04,7.80
2018,04,21,01,05,7.80
2018,04,21,01,06,7.80
2018,04,21,01,07,7.80
2018,04,21,01,08,7.80
2018,04,21,01,09,7.80
2018,04,21,01,10,7.80
2018,04,21,01,11,7.70
2018,04,21,01,12,7.70
2018,04,21,01,13,7.70
2018,04,21,01,14,7.70
2018,04,21,01,15,7.60
2018,04,21,01,16,7.60
2018,04,21,01,17,7.60
2018,04,21,01,18,7.60
2018,04,21,01,19,7.60
2018,04,21,01,20,7.60
2018,04,21,01,21,7.60
2018,04,21,01,22,7.60
2018,04,21,01,23,7.60
2018,04,21,01,24,7.50
2018,04,21,01,25,7.50
2018,04,21,01,26,7.50
2018,04,21,01,27,7.50
2018,04,21,01,28,7.50
2018,04,21,01,29,7.50
2018,04,21,01,30,7.50
2018,04,21,01,31,7.50
2018,04,21,01,32,7.50
2018,04,21,01,33,7.50
2018,04,21,01,34,7.50
2018,04,21,01,35,7.50
2018,04,21,01,36,7.50
2018,04,21,01,37,7.50
2018,04,21,01,38,7.50
2018,04,21,01,39,7.50
2018,04,21,01,40,7.50
2018,04,21,01,41,7.50
2018,04,21,01,42,7.50
2018,04,21,01,43,7.50
2018,04,21,01,44,7.50
2018,04,21,01,45,7.50
2018,04,21,01,46,7.40
2018,04,21,01,47,7.40
2018,04,21,01,48,7.40
2018,04,21,01,49,7.40
2018,04,21,01,50,7.40
2018,04,21,01,51,7.40
2018,04,21,01,52,7.40
2018,04,21,01,53,7.40
2018,04,21,01,54,7.40
2018,04,21,01,55,7.40
2018,04,21,01,56,7.40
2018,04,21,01,57,7.30
2018,04,21,01,58,7.30
2018,04,21,01,59,7.30
2018,04,21,02,00,7.30
2018,04,21,02,01,7.30
2018,04,21,02,02,7.30
2018,04,21,02,03,7.30
2018,04,21,02,04,7.30
2018,04,21,02,05,7.40
2018,04,21,02,06,7.40
2018,04,21,02,07,7.40
2018,04,21,02,08,7.30
2018,04,21,02,09,7.30
2018,04,21,02,10,7.30
2018,04,21,02,11,7.30
2018,04,21,02,12,7.30
2018,04,21,02,13,7.30
2018,04,21,02,14,7.30
2018,04,21,02,15,7.30
2018,04,21,02,16,7.30
2018,04,21,02,17,7.30
2018,04,21,02,18,7.30
2018,04,21,02,19,7.30
2018,04,21,02,20,7.20
2018,04,21,02,21,7.20
2018,04,21,02,22,7.20
2018,04,21,02,23,7.20
2018,04,21,02,24,7.10
2018,04,21,02,25,7.10
2018,04,21,02,26,7.10
2018,04,21,02,27,7.00
2018,04,21,02,28,7.00
2018,04,21,02,29,6.90
2018,04,21,02,30,6.90
2018,04,21,02,31,6.80
2018,04,21,02,32,6.80
2018,04,21,02,33,6.80
2018,04,21,02,34,6.80
2018,04,21,02,35,6.80
2018,04,21,02,36,6.80
2018,04,21,02,37,6.80
2018,04,21,02,38,6.80
2018,04,21,02,39,6.80
2018,04,21,02,40,6.80
2018,04,21,02,41,6.80
2018,04,21,02,42,6.80
2018,04,21,02,43,6.70
2018,04,21,02,44,6.70
2018,04,21,02,45,6.70
2018,04,21,02,46,6.70
2018,04,21,02,47,6.70
2018,04,21,02,48,6.70
2018,04,21,02,49,6.70
2018,04,21,02,50,6.70
2018,04,21,02,51,6.80
2018,04,21,02,52,6.80
2018,04,21,02,53,6.80
2018,04,21,02,54,6.90
2018,04,21,02,55,6.90
2018,04,21,02,56,7.00
2018,04,21,02,57,7.00
2018,04,21,02,58,7.10
2018,04,21,02,59,7.10
2018,04,21,03,00,7.10
2018,04,21,03,01,7.20
2018,04,21,03,02,7.20
2018,04,21,03,03,7.20
2018,04,21,03,04,7.20
2018,04,21,03,05,7.10
2018,04,21,03,06,7.10
2018,04,21,03,07,7.10
2018,04,21,03,08,7.10
2018,04,21,03,09,7.10
2018,04,21,03,10,7.00
2018,04,21,03,11,7.00
2018,04,21,03,12,6.90
2018,04,21,03,13,6.90
2018,04,21,03,14,6.80
2018,04,21,03,15,6.80
2018,04,21,03,16,6.80
2018,04,21,03,17,6.70
2018,04,21,03,18,6.70
2018,04,21,03,19,6.60
2018,04,21,03,20,6.60
2018,04,21,03,21,6.50
2018,04,21,03,22,6.50
2018,04,21,03,23,6.40
2018,04,21,03,24,6.30
2018,04,21,03,25,6.30
2018,04,21,03,26,6.30
2018,04,21,03,27,6.20
2018,04,21,03,28,6.20
2018,04,21,03,29,6.20
2018,04,21,03,30,6.10
2018,04,21,03,31,6.10
2018,04,21,03,32,6.10
2018,04,21,03,33,6.10
2018,04,21,03,34,6.00
2018,04,21,03,35,6.00
2018,04,21,03,36,6.00
2018,04,21,03,37,5.90
2018,04,21,03,38,5.90
2018,04,21,03,39,5.90
2018,04,21,03,40,5.90
2018,04,21,03,41,5.90
2018,04,21,03,42,5.90
2018,04,21,03,43,5.80
2018,04,21,03,44,5.80
2018,04,21,03,45,5.80
2018,04,21,03,46,5.80
2018,04,21,03,47,5.80
2018,04,21,03,48,5.80
2018,04,21,03,49,5.80
2018,04,21,03,50,5.70
2018,04,21,03,51,5.70
2018,04,21,03,52,5.70
2018,04,21,03,53,5.80
2018,04,21,03,54,5.80
2018,04,21,03,55,5.80
2018,04,21,03,56,5.80
2018,04,21,03,57,5.80
2018,04,21,03,58,5.80
2018,04,21,03,59,5.80
2018,04,21,04,00,5.80
2018,04,21,04,01,5.80
2018,04,21,04,02,5.90
2018,04,21,04,03,5.90
2018,04,21,04,04,5.90
2018,04,21,04,05,6.00
2018,04,21,04,06,6.00
2018,04,21,04,07,6.10
2018,04,21,04,08,6.10
2018,04,21,04,09,6.20
2018,04,21,04,10,6.20
2018,04,21,04,11,6.30
2018,04,21,04,12,6.30
2018,04,21,04,13,6.30
2018,04,21,04,14,6.30
2018,04,21,04,15,6.30
2018,04,21,04,16,6.20
2018,04,21,04,17,6.20
2018,04,21,04,18,6.30
2018,04,21,04,19,6.40
2018,04,21,04,20,6.50
2018,04,21,04,21,6.60
2018,04,21,04,22,6.70
2018,04,21,04,23,6.70
2018,04,21,04,24,6.80
2018,04,21,04,25,6.80
2018,04,21,04,26,6.80
2018,04,21,04,27,6.70
2018,04,21,04,28,6.70
2018,04,21,04,29,6.70
2018,04,21,04,30,6.70
2018,04,21,04,31,6.60
2018,04,21,04,32,6.60
2018,04,21,04,33,6.60
2018,04,21,04,34,6.60
2018,04,21,04,35,6.60
2018,04,21,04,36,6.60
2018,04,21,04,37,6.50
2018,04,21,04,38,6.50
2018,04,21,04,39,6.50
2018,04,21,04,40,6.40
2018,04,21,04,41,6.40
2018,04,21,04,42,6.40
2018,04,21,04,43,6.40
2018,04,21,04,44,6.40
2018,04,21,04,45,6.30
2018,04,21,04,46,6.30
2018,04,21,04,47,6.30
2018,04,21,04,48,6.30
2018,04,21,04,49,6.30
2018,04,21,04,50,6.20
2018,04,21,04,51,6.20
2018,04,21,04,52,6.20
2018,04,21,04,53,6.20
2018,04,21,04,54,6.20
2018,04,21,04,55,6.10
2018,04,21,04,56,6.10
2018,04,21,04,57,6.10
2018,04,21,04,58,6.10
2018,04,21,04,59,6.10
2018,04,21,05,00,6.00
2018,04,21,05,01,6.10
2018,04,21,05,02,6.10
2018,04,21,05,03,6.10
2018,04,21,05,04,6.10
2018,04,21,05,05,6.20
2018,04,21,05,06,6.30
2018,04,21,05,07,6.30
2018,04,21,05,08,6.30
2018,04,21,05,09,6.40
2018,04,21,05,10,6.40
2018,04,21,05,11,6.40
2018,04,21,05,12,6.60
2018,04,21,05,13,6.60
2018,04,21,05,14,6.70
2018,04,21,05,15,6.80
2018,04,21,05,16,6.90
2018,04,21,05,17,6.90
2018,04,21,05,18,7.00
2018,04,21,05,19,7.00
2018,04,21,05,20,7.10
2018,04,21,05,21,7.10
2018,04,21,05,22,7.20
2018,04,21,05,23,7.20
2018,04,21,05,24,7.10
2018,04,21,05,25,7.10
2018,04,21,05,26,7.10
2018,04,21,05,27,7.00
2018,04,21,05,28,7.00
2018,04,21,05,29,6.90
2018,04,21,05,30,6.90
2018,04,21,05,31,6.90
2018,04,21,05,32,6.90
2018,04,21,05,33,6.80
2018,04,21,05,34,6.80
2018,04,21,05,35,6.80
2018,04,21,05,36,6.80
2018,04,21,05,37,6.80
2018,04,21,05,38,6.70
2018,04,21,05,39,6.70
2018,04,21,05,40,6.60
2018,04,21,05,41,6.60
2018,04,21,05,42,6.50
2018,04,21,05,43,6.40
2018,04,21,05,44,6.40
2018,04,21,05,45,6.40
2018,04,21,05,46,6.40
2018,04,21,05,47,6.40
2018,04,21,05,48,6.40
2018,04,21,05,49,6.40
2018,04,21,05,50,6.40
2018,04,21,05,51,6.40
2018,04,21,05,52,6.40
2018,04,21,05,53,6.40
2018,04,21,05,54,6.40
2018,04,21,05,55,6.40
2018,04,21,05,56,6.40
2018,04,21,05,57,6.50
2018,04,21,05,58,6.50
2018,04,21,05,59,6.50
2018,04,21,06,00,6.60
2018,04,21,06,01,6.60
2018,04,21,06,02,6.70
2018,04,21,06,03,6.70
2018,04,21,06,04,6.80
2018,04,21,06,05,6.80
2018,04,21,06,06,6.80
2018,04,21,06,07,6.90
2018,04,21,06,08,6.90
2018,04,21,06,09,7.00
2018,04,21,06,10,7.00
2018,04,21,06,11,7.10
2018,04,21,06,12,7.20
2018,04,21,06,13,7.20
2018,04,21,06,14,7.30
2018,04,21,06,15,7.30
2018,04,21,06,16,7.30
2018,04,21,06,17,7.40
2018,04,21,06,18,7.40
2018,04,21,06,19,7.40
2018,04,21,06,20,7.40
2018,04,21,06,21,7.40
2018,04,21,06,22,7.40
2018,04,21,06,23,7.40
2018,04,21,06,24,7.40
2018,04,21,06,25,7.40
2018,04,21,06,26,7.30
2018,04,21,06,27,7.30
2018,04,21,06,28,7.30
2018,04,21,06,29,7.30
2018,04,21,06,30,7.30
2018,04,21,06,31,7.30
2018,04,21,06,32,7.30
2018,04,21,06,33,7.30
2018,04,21,06,34,7.30
2018,04,21,06,35,7.30
2018,04,21,06,36,7.30
2018,04,21,06,37,7.30
2018,04,21,06,38,7.30
2018,04,21,06,39,7.30
2018,04,21,06,40,7.30
2018,04,21,06,41,7.20
2018,04,21,06,42,7.20
2018,04,21,06,43,7.20
2018,04,21,06,44,7.20
2018,04,21,06,45,7.20
2018,04,21,06,46,7.20
2018,04,21,06,47,7.20
2018,04,21,06,48,7.20
2018,04,21,06,49,7.20
2018,04,21,06,50,7.10
2018,04,21,06,51,7.10
2018,04,21,06,52,7.10
2018,04,21,06,53,7.10
2018,04,21,06,54,7.10
2018,04,21,06,55,7.10
2018,04,21,06,56,7.00
2018,04,21,06,57,7.00
2018,04,21,06,58,7.00
2018,04,21,06,59,7.00
2018,04,21,07,00,7.00
2018,04,21,07,01,7.00
2018,04,21,07,02,7.00
2018,04,21,07,03,7.00
2018,04,21,07,04,7.00
2018,04,21,07,05,7.00
2018,04,21,07,06,7.00
2018,04,21,07,07,7.00
2018,04,21,07,08,7.00
2018,04,21,07,09,7.00
2018,04,21,07,10,7.00
2018,04,21,07,11,7.10
2018,04,21,07,12,7.10
2018,04,21,07,13,7.10
2018,04,21,07,14,7.20
2018,04,21,07,15,7.20
2018,04,21,07,16,7.20
2018,04,21,07,17,7.30
2018,04,21,07,18,7.40
2018,04,21,07,19,7.40
2018,04,21,07,20,7.50
2018,04,21,07,21,7.50
2018,04,21,07,22,7.60
2018,04,21,07,23,7.60
2018,04,21,07,24,7.70
2018,04,21,07,25,7.70
2018,04,21,07,26,7.80
2018,04,21,07,27,7.80
2018,04,21,07,28,7.80
2018,04,21,07,29,7.80
2018,04,21,07,30,7.80
2018,04,21,07,31,7.80
2018,04,21,07,32,7.90
2018,04,21,07,33,7.90
2018,04,21,07,34,7.90
2018,04,21,07,35,7.90
2018,04,21,07,36,8.00
2018,04,21,07,37,8.00
2018,04,21,07,38,8.10
2018,04,21,07,39,8.20
2018,04,21,07,40,8.20
2018,04,21,07,41,8.30
2018,04,21,07,42,8.40
2018,04,21,07,43,8.50
2018,04,21,07,44,8.50
2018,04,21,07,45,8.60
2018,04,21,07,46,8.60
2018,04,21,07,47,8.70
2018,04,21,07,48,8.70
2018,04,21,07,49,8.80
2018,04,21,07,50,8.90
2018,04,21,07,51,8.90
2018,04,21,07,52,9.00
2018,04,21,07,53,9.00
2018,04,21,07,54,9.10
2018,04,21,07,55,9.10
2018,04,21,07,56,9.20
2018,04,21,07,57,9.20
2018,04,21,07,58,9.30
2018,04,21,07,59,9.30
2018,04,21,08,00,9.40
2018,04,21,08,01,9.40
2018,04,21,08,02,9.50
2018,04,21,08,03,9.50
2018,04,21,08,04,9.60
2018,04,21,08,05,9.60
2018,04,21,08,06,9.60
2018,04,21,08,07,9.60
2018,04,21,08,08,9.70
2018,04,21,08,09,9.70
2018,04,21,08,10,9.70
2018,04,21,08,11,9.70
2018,04,21,08,12,9.70
2018,04,21,08,13,9.70
2018,04,21,08,14,9.70
2018,04,21,08,15,9.80
2018,04,21,08,16,9.80
2018,04,21,08,17,9.80
2018,04,21,08,18,9.80
2018,04,21,08,19,9.80
2018,04,21,08,20,9.80
2018,04,21,08,21,9.90
2018,04,21,08,22,9.90
2018,04,21,08,23,10.00
2018,04,21,08,24,10.00
2018,04,21,08,25,10.00
2018,04,21,08,26,10.00
2018,04,21,08,27,10.00
2018,04,21,08,28,10.00
2018,04,21,08,29,10.00
2018,04,21,08,30,9.90
2018,04,21,08,31,9.90
2018,04,21,08,32,9.90
2018,04,21,08,33,9.90
2018,04,21,08,34,9.90
2018,04,21,08,35,10.00
2018,04,21,08,36,10.00
2018,04,21,08,37,10.00
2018,04,21,08,38,10.10
2018,04,21,08,39,10.10
2018,04,21,08,40,10.10
2018,04,21,08,41,10.20
2018,04,21,08,42,10.20
2018,04,21,08,43,10.20
2018,04,21,08,44,10.30
2018,04,21,08,45,10.30
2018,04,21,08,46,10.30
2018,04,21,08,47,10.30
2018,04,21,08,48,10.30
2018,04,21,08,49,10.30
2018,04,21,08,50,10.30
2018,04,21,08,51,10.40
2018,04,21,08,52,10.40
2018,04,21,08,53,10.50
2018,04,21,08,54,10.50
2018,04,21,08,55,10.60
2018,04,21,08,56,10.60
2018,04,21,08,57,10.70
2018,04,21,08,58,10.70
2018,04,21,08,59,10.70
2018,04,21,09,00,10.70
2018,04,21,09,01,10.70
2018,04,21,09,02,10.70
2018,04,21,09,03,10.80
2018,04,21,09,04,10.70
2018,04,21,09,05,10.80
2018,04,21,09,06,10.70
2018,04,21,09,07,10.80
2018,04,21,09,08,10.80
2018,04,21,09,09,10.80
2018,04,21,09,10,10.90
2018,04,21,09,11,11.00
2018,04,21,09,12,11.00
2018,04,21,09,13,11.10
2018,04,21,09,14,11.10
2018,04,21,09,15,11.20
2018,04,21,09,16,11.20
2018,04,21,09,17,11.20
2018,04,21,09,18,11.20
2018,04,21,09,19,11.30
2018,04,21,09,20,11.30
2018,04,21,09,21,11.30
2018,04,21,09,22,11.30
2018,04,21,09,23,11.30
2018,04,21,09,24,11.30
2018,04,21,09,25,11.30
2018,04,21,09,26,11.30
2018,04,21,09,27,11.30
2018,04,21,09,28,11.30
2018,04,21,09,29,11.40
2018,04,21,09,30,11.40
2018,04,21,09,31,11.40
2018,04,21,09,32,11.50
2018,04,21,09,33,11.50
2018,04,21,09,34,11.60
2018,04,21,09,35,11.60
2018,04,21,09,36,11.70
2018,04,21,09,37,11.70
2018,04,21,09,38,11.70
2018,04,21,09,39,11.70
2018,04,21,09,40,11.70
2018,04,21,09,41,11.70
2018,04,21,09,42,11.70
2018,04,21,09,43,11.70
2018,04,21,09,44,11.70
2018,04,21,09,45,11.80
2018,04,21,09,46,11.80
2018,04,21,09,47,11.90
2018,04,21,09,48,11.90
2018,04,21,09,49,11.90
2018,04,21,09,50,11.90
2018,04,21,09,51,11.90
2018,04,21,09,52,11.90
2018,04,21,09,53,11.80
2018,04,21,09,54,11.80
2018,04,21,09,55,11.80
2018,04,21,09,56,11.80
2018,04,21,09,57,11.80
2018,04,21,09,58,11.70
2018,04,21,09,59,11.70
2018,04,21,10,00,11.70
2018,04,21,10,01,11.80
2018,04,21,10,02,11.80
2018,04,21,10,03,11.80
2018,04,21,10,04,11.70
2018,04,21,10,05,11.70
2018,04,21,10,06,11.70
2018,04,21,10,07,11.70
2018,04,21,10,08,11.80
2018,04,21,10,09,11.80
2018,04,21,10,10,11.90
2018,04,21,10,11,11.90
2018,04,21,10,12,11.90
2018,04,21,10,13,12.00
2018,04,21,10,14,12.00
2018,04,21,10,15,11.90
2018,04,21,10,16,11.90
2018,04,21,10,17,11.90
2018,04,21,10,18,11.80
2018,04,21,10,19,11.80
2018,04,21,10,20,11.90
2018,04,21,10,21,12.00
2018,04,21,10,22,12.00
2018,04,21,10,23,12.00
2018,04,21,10,24,12.00
2018,04,21,10,25,12.00
2018,04,21,10,26,12.10
2018,04,21,10,27,12.00
2018,04,21,10,28,12.00
2018,04,21,10,29,11.90
2018,04,21,10,30,11.90
2018,04,21,10,31,12.00
2018,04,21,10,32,12.00
2018,04,21,10,33,12.10
2018,04,21,10,34,12.10
2018,04,21,10,35,12.10
2018,04,21,10,36,12.00
2018,04,21,10,37,11.90
2018,04,21,10,38,11.90
2018,04,21,10,39,12.00
2018,04,21,10,40,12.10
2018,04,21,10,41,12.10
2018,04,21,10,42,12.10
2018,04,21,10,43,12.10
2018,04,21,10,44,12.10
2018,04,21,10,45,12.00
2018,04,21,10,46,11.90
2018,04,21,10,47,11.80
2018,04,21,10,48,11.80
2018,04,21,10,49,11.80
2018,04,21,10,50,11.90
2018,04,21,10,51,12.00
2018,04,21,10,52,12.00
2018,04,21,10,53,12.10
2018,04,21,10,54,12.10
2018,04,21,10,55,12.20
2018,04,21,10,56,12.20
2018,04,21,10,57,12.20
2018,04,21,10,58,12.10
2018,04,21,10,59,12.10
2018,04,21,11,00,12.00
2018,04,21,11,01,11.90
2018,04,21,11,02,11.80
2018,04,21,11,03,11.80
2018,04,21,11,04,11.70
2018,04,21,11,05,11.60
2018,04,21,11,06,11.60
2018,04,21,11,07,11.60
2018,04,21,11,08,11.60
2018,04,21,11,09,11.60
2018,04,21,11,10,11.70
2018,04,21,11,11,11.70
2018,04,21,11,12,11.80
2018,04,21,11,13,11.90
2018,04,21,11,14,12.00
2018,04,21,11,15,12.10
2018,04,21,11,16,12.20
2018,04,21,11,17,12.10
2018,04,21,11,18,12.10
2018,04,21,11,19,12.10
2018,04,21,11,20,12.20
2018,04,21,11,21,12.20
2018,04,21,11,22,12.20
2018,04,21,11,23,12.30
2018,04,21,11,24,12.30
2018,04,21,11,25,12.30
2018,04,21,11,26,12.40
2018,04,21,11,27,12.40
2018,04,21,11,28,12.50
2018,04,21,11,29,12.60
2018,04,21,11,30,12.70
2018,04,21,11,31,12.70
2018,04,21,11,32,12.70
2018,04,21,11,33,12.70
2018,04,21,11,34,12.60
2018,04,21,11,35,12.60
2018,04,21,11,36,12.60
2018,04,21,11,37,12.60
2018,04,21,11,38,12.60
2018,04,21,11,39,12.50
2018,04,21,11,40,12.50
2018,04,21,11,41,12.50
2018,04,21,11,42,12.50
2018,04,21,11,43,12.60
2018,04,21,11,44,12.60
2018,04,21,11,45,12.60
2018,04,21,11,46,12.60
2018,04,21,11,47,12.70
2018,04,21,11,48,12.70
2018,04,21,11,49,12.80
2018,04,21,11,50,12.80
2018,04,21,11,51,12.80
2018,04,21,11,52,12.80
2018,04,21,11,53,12.80
2018,04,21,11,54,12.80
2018,04,21,11,55,12.70
2018,04,21,11,56,12.60
2018,04,21,11,57,12.40
2018,04,21,11,58,12.20
2018,04,21,11,59,12.10
2018,04,21,12,00,12.00
2018,04,21,12,01,12.00
2018,04,21,12,02,12.00
2018,04,21,12,03,11.90
2018,04,21,12,04,11.80
2018,04,21,12,05,11.80
2018,04,21,12,06,11.80
2018,04,21,12,07,11.80
2018,04,21,12,08,11.80
2018,04,21,12,09,11.80
2018,04,21,12,10,11.80
2018,04,21,12,11,11.80
2018,04,21,12,12,11.80
2018,04,21,12,13,11.80
2018,04,21,12,14,11.80
2018,04,21,12,15,11.70
2018,04,21,12,16,11.70
2018,04,21,12,17,11.70
2018,04,21,12,18,11.70
2018,04,21,12,19,11.60
2018,04,21,12,20,11.60
2018,04,21,12,21,11.60
2018,04,21,12,22,11.60
2018,04,21,12,23,11.60
2018,04,21,12,24,11.60
2018,04,21,12,25,11.50
2018,04,21,12,26,11.60
2018,04,21,12,27,11.60
2018,04,21,12,28,11.60
2018,04,21,12,29,11.60
2018,04,21,12,30,11.60
2018,04,21,12,31,11.60
2018,04,21,12,32,11.60
2018,04,21,12,33,11.60
2018,04,21,12,34,11.60
2018,04,21,12,35,11.60
2018,04,21,12,36,11.70
2018,04,21,12,37,11.70
2018,04,21,12,38,11.70
2018,04,21,12,39,11.60
2018,04,21,12,40,11.60
2018,04,21,12,41,11.50
2018,04,21,12,42,11.50
2018,04,21,12,43,11.50
2018,04,21,12,44,11.50
2018,04,21,12,45,11.60
2018,04,21,12,46,11.60
2018,04,21,12,47,11.70
2018,04,21,12,48,11.70
2018,04,21,12,49,11.70
2018,04,21,12,50,11.70
2018,04,21,12,51,11.70
2018,04,21,12,52,11.70
2018,04,21,12,53,11.70
2018,04,21,12,54,11.70
2018,04,21,12,55,11.70
2018,04,21,12,56,11.70
2018,04,21,12,57,11.70
2018,04,21,12,58,11.70
2018,04,21,12,59,11.70
2018,04,21,13,00,11.60
2018,04,21,13,01,11.60
2018,04,21,13,02,11.50
2018,04,21,13,03,11.40
2018,04,21,13,04,11.30
2018,04,21,13,05,11.20
2018,04,21,13,06,11.10
2018,04,21,13,07,11.00
2018,04,21,13,08,11.00
2018,04,21,13,09,10.90
2018,04,21,13,10,10.90
2018,04,21,13,11,10.80
2018,04,21,13,12,10.80
2018,04,21,13,13,10.80
2018,04,21,13,14,10.80
2018,04,21,13,15,10.80
2018,04,21,13,16,10.80
2018,04,21,13,17,10.80
2018,04,21,13,18,10.80
2018,04,21,13,19,10.80
2018,04,21,13,20,10.90
2018,04,21,13,21,10.90
2018,04,21,13,22,10.90
2018,04,21,13,23,10.90
2018,04,21,13,24,10.90
2018,04,21,13,25,10.90
2018,04,21,13,26,10.90
2018,04,21,13,27,10.90
2018,04,21,13,28,11.00
2018,04,21,13,29,11.00
2018,04,21,13,30,11.10
2018,04,21,13,31,11.10
2018,04,21,13,32,11.10
2018,04,21,13,33,11.10
2018,04,21,13,34,11.20
2018,04,21,13,35,11.20
2018,04,21,13,36,11.20
2018,04,21,13,37,11.30
2018,04,21,13,38,11.30
2018,04,21,13,39,11.40
2018,04,21,13,40,11.40
2018,04,21,13,41,11.50
2018,04,21,13,42,11.60
2018,04,21,13,43,11.60
2018,04,21,13,44,11.70
2018,04,21,13,45,11.70
2018,04,21,13,46,11.70
2018,04,21,13,47,11.70
2018,04,21,13,48,11.70
2018,04,21,13,49,11.60
2018,04,21,13,50,11.70
2018,04,21,13,51,11.70
2018,04,21,13,52,11.70
2018,04,21,13,53,11.70
2018,04,21,13,54,11.70
2018,04,21,13,55,11.70
2018,04,21,13,56,11.70
2018,04,21,13,57,11.60
2018,04,21,13,58,11.60
2018,04,21,13,59,11.60
2018,04,21,14,00,11.50
2018,04,21,14,01,11.50
2018,04,21,14,02,11.40
2018,04,21,14,03,11.40
2018,04,21,14,04,11.40
2018,04,21,14,05,11.40
2018,04,21,14,06,11.40
2018,04,21,14,07,11.40
2018,04,21,14,08,11.40
2018,04,21,14,09,11.40
2018,04,21,14,10,11.40
2018,04,21,14,11,11.50
2018,04,21,14,12,11.50
2018,04,21,14,13,11.50
2018,04,21,14,14,11.50
2018,04,21,14,15,11.50
2018,04,21,14,16,11.50
2018,04,21,14,17,11.50
2018,04,21,14,18,11.50
2018,04,21,14,19,11.50
2018,04,21,14,20,11.40
2018,04,21,14,21,11.40
2018,04,21,14,22,11.40
2018,04,21,14,23,11.40
2018,04,21,14,24,11.30
2018,04,21,14,25,11.30
2018,04,21,14,26,11.30
2018,04,21,14,27,11.30
2018,04,21,14,28,11.40
2018,04,21,14,29,11.30
2018,04,21,14,30,11.30
2018,04,21,14,31,11.20
2018,04,21,14,32,11.20
2018,04,21,14,33,11.20
2018,04,21,14,34,11.20
2018,04,21,14,35,11.30
2018,04,21,14,36,11.30
2018,04,21,14,37,11.30
2018,04,21,14,38,11.40
2018,04,21,14,39,11.50
2018,04,21,14,40,11.50
2018,04,21,14,41,11.60
2018,04,21,14,42,11.50
2018,04,21,14,43,11.50
2018,04,21,14,44,11.40
2018,04,21,14,45,11.40
2018,04,21,14,46,11.40
2018,04,21,14,47,11.30
2018,04,21,14,48,11.30
2018,04,21,14,49,11.40
2018,04,21,14,50,11.40
2018,04,21,14,51,11.40
2018,04,21,14,52,11.40
2018,04,21,14,53,11.40
2018,04,21,14,54,11.40
2018,04,21,14,55,11.40
2018,04,21,14,56,11.40
2018,04,21,14,57,11.50
2018,04,21,14,58,11.50
2018,04,21,14,59,11.50
2018,04,21,15,00,11.50
2018,04,21,15,01,11.50
2018,04,21,15,02,11.40
2018,04,21,15,03,11.40
2018,04,21,15,04,11.40
2018,04,21,15,05,11.30
2018,04,21,15,06,11.20
2018,04,21,15,07,11.10
2018,04,21,15,08,11.00
2018,04,21,15,09,10.90
2018,04,21,15,10,10.70
2018,04,21,15,11,10.50
2018,04,21,15,12,10.40
2018,04,21,15,13,10.30
2018,04,21,15,14,10.20
2018,04,21,15,15,10.10
2018,04,21,15,16,10.10
2018,04,21,15,17,10.00
2018,04,21,15,18,10.00
2018,04,21,15,19,9.90
2018,04,21,15,20,9.90
2018,04,21,15,21,9.90
2018,04,21,15,22,9.90
2018,04,21,15,23,9.90
2018,04,21,15,24,9.90
2018,04,21,15,25,9.90
2018,04,21,15,26,9.90
2018,04,21,15,27,9.90
2018,04,21,15,28,9.90
2018,04,21,15,29,9.90
2018,04,21,15,30,9.90
2018,04,21,15,31,9.90
2018,04,21,15,32,9.90
2018,04,21,15,33,9.90
2018,04,21,15,34,9.90
2018,04,21,15,35,9.90
2018,04,21,15,36,9.80
2018,04,21,15,37,9.80
2018,04,21,15,38,9.80
2018,04,21,15,39,9.70
2018,04,21,15,40,9.70
2018,04,21,15,41,9.70
2018,04,21,15,42,9.80
2018,04,21,15,43,9.80
2018,04,21,15,44,9.80
2018,04,21,15,45,9.80
2018,04,21,15,46,9.80
2018,04,21,15,47,9.80
2018,04,21,15,48,9.80
2018,04,21,15,49,9.80
2018,04,21,15,50,9.80
2018,04,21,15,51,9.80
2018,04,21,15,52,9.80
2018,04,21,15,53,9.70
2018,04,21,15,54,9.70
2018,04,21,15,55,9.60
2018,04,21,15,56,9.60
2018,04,21,15,57,9.60
2018,04,21,15,58,9.60
2018,04,21,15,59,9.50
2018,04,21,16,00,9.40
2018,04,21,16,01,9.40
2018,04,21,16,02,9.30
2018,04,21,16,03,9.20
2018,04,21,16,04,9.20
2018,04,21,16,05,9.20
2018,04,21,16,06,9.20
2018,04,21,16,07,9.30
2018,04,21,16,08,9.40
2018,04,21,16,09,9.50
2018,04,21,16,10,9.40
2018,04,21,16,11,9.40
2018,04,21,16,12,9.50
2018,04,21,16,13,9.50
2018,04,21,16,14,9.50
2018,04,21,16,15,9.50
2018,04,21,16,16,9.40
2018,04,21,16,17,9.40
2018,04,21,16,18,9.40
2018,04,21,16,19,9.40
2018,04,21,16,20,9.40
2018,04,21,16,21,9.40
2018,04,21,16,22,9.40
2018,04,21,16,23,9.50
2018,04,21,16,24,9.50
2018,04,21,16,25,9.60
2018,04,21,16,26,9.60
2018,04,21,16,27,9.70
2018,04,21,16,28,9.70
2018,04,21,16,29,9.70
2018,04,21,16,30,9.80
2018,04,21,16,31,9.80
2018,04,21,16,32,9.80
2018,04,21,16,33,9.90
2018,04,21,16,34,10.00
2018,04,21,16,35,10.10
2018,04,21,16,36,10.10
2018,04,21,16,37,10.20
2018,04,21,16,38,10.20
2018,04,21,16,39,10.20
2018,04,21,16,40,10.30
2018,04,21,16,41,10.30
2018,04,21,16,42,10.40
2018,04,21,16,43,10.50
2018,04,21,16,44,10.50
2018,04,21,16,45,10.60
2018,04,21,16,46,10.60
2018,04,21,16,47,10.60
2018,04,21,16,48,10.60
2018,04,21,16,49,10.60
2018,04,21,16,50,10.60
2018,04,21,16,51,10.50
2018,04,21,16,52,10.50
2018,04,21,16,53,10.50
2018,04,21,16,54,10.50
2018,04,21,16,55,10.50
2018,04,21,16,56,10.40
2018,04,21,16,57,10.50
2018,04,21,16,58,10.50
2018,04,21,16,59,10.50
2018,04,21,17,00,10.60
2018,04,21,17,01,10.70
2018,04,21,17,02,10.70
2018,04,21,17,03,10.70
2018,04,21,17,04,10.80
2018,04,21,17,05,10.80
2018,04,21,17,06,10.80
2018,04,21,17,07,10.90
2018,04,21,17,08,11.00
2018,04,21,17,09,11.00
2018,04,21,17,10,11.00
2018,04,21,17,11,11.10
2018,04,21,17,12,11.10
2018,04,21,17,13,11.10
2018,04,21,17,14,11.10
2018,04,21,17,15,11.10
2018,04,21,17,16,11.10
2018,04,21,17,17,11.10
2018,04,21,17,18,11.10
2018,04,21,17,19,11.10
2018,04,21,17,20,11.20
2018,04,21,17,21,11.20
2018,04,21,17,22,11.20
2018,04,21,17,23,11.20
2018,04,21,17,24,11.20
2018,04,21,17,25,11.20
2018,04,21,17,26,11.30
2018,04,21,17,27,11.30
2018,04,21,17,28,11.40
2018,04,21,17,29,11.40
2018,04,21,17,30,11.30
2018,04,21,17,31,11.40
2018,04,21,17,32,11.40
2018,04,21,17,33,11.40
2018,04,21,17,34,11.50
2018,04,21,17,35,11.60
2018,04,21,17,36,11.60
2018,04,21,17,37,11.70
2018,04,21,17,38,11.80
2018,04,21,17,39,11.90
2018,04,21,17,40,11.90
2018,04,21,17,41,12.00
2018,04,21,17,42,12.10
2018,04,21,17,43,12.20
2018,04,21,17,44,12.20